Weather in Urovskiye Klyuchi

Russia / Zabaykalsky Krai     51°41′34″N   119°27′43″E
temp.,
°C
wind,
m/s
gust,
m/s
humid.,
%
clouds,
%
prec.,
mm/h
press.,
hPa
HPBL,
m
4 march, thu
thu400:00−17ssw129886 0.0 101120
03:00−15sw129792 0.3 100949
06:00−15wsw2796100 0.1 1010214
09:00−17wnw389487 0.1 1013295
12:00−14nw458596 0.1 10171089
15:00−16n578498 0.4 10201306
18:00−19nnw3785100 0.1 1024839
21:00−25nnw249386 0.1 103178
5 march, fri
fri500:00−28nnw229531 0.0 103522
03:00−30nw229516 0.0 103819
06:00−31nw12890 0.0 104219
09:00−28wnw11890 0.0 104353
12:00−20w24800 0.0 1042687
15:00−18w35790 0.0 1040754
18:00−19wsw268441 0.0 1040244
21:00−26wsw129120 0.0 104220
6 march, sat
sat600:00−28sw12920 0.0 104219
03:00−30ssw12940 0.0 104219
06:00−31ssw22930 0.0 104120
09:00−28s229523 0.0 103986
12:00−21s238899 0.0 1034328
15:00−19s349398 0.0 1030400
18:00−20s2496100 0.0 1028354
21:00−21s1299100 0.3 1029156
7 march, sun
sun700:00−22sw1199100 0.4 102823
03:00−23w119997 0.5 102820
06:00−22w119892 0.0 102920
09:00−20wnw119662 0.0 103143
12:00−11wsw128449 0.0 1029421
15:00−8wsw238069 0.0 1028645
18:00−12s349595 0.0 1027156
21:00−19s2210081 0.0 103030
8 march, mon
mon800:00−21s23100100 0.0 102955
03:00−21s23100100 0.1 102847
06:00−22ssw229998 0.0 102728
09:00−18ssw239897 0.0 102685
12:00−10ssw2392100 0.0 1022222
15:00−5ssw2493100 0.0 1021381
18:00−5ssw239388 0.0 1020125
21:00−11sw129554 0.0 102421